Regional Weather Roundup
Issued by NWS Northern Indiana

Home | Current Version | Previous Version | Text Only | Print | Product List | Glossary Off
Versions: 1 2 3 4 5 6 7 8 9 10 11 12 13 14 15 16 17 18 19 20 21 22 23 24 25 26 27 28 29 30 31 32 33 34 35 36 37 38 39 40 41 42 43 44 45 46 47 48 49 50

000
ASUS43 KIWX 241800
RWRIWX

KIWX WEATHER ROUNDUP
NATIONAL WEATHER SERVICE NORTHERN INDIANA
200 PM EDT SAT JUN 24 2017

NOTE: "FAIR" INDICATES FEW OR NO CLOUDS BELOW 12,000 FEET WITH NO
SIGNIFICANT WEATHER AND/OR OBSTRUCTIONS TO VISIBILITY.

* THESE STATIONS ARE NOT UNDER NWS QUALITY CONTROL. THEY ALSO MAY NOT
  REPORT WEATHER SUCH AS PRECIPITATION OR FOG.

INZ001>027-241900-
NORTHERN INDIANA

CITY           SKY/WX    TMP DP  RH WIND       PRES   REMARKS
GARY*          MOSUNNY   75  43  31 W14G30    29.99S
MICHIGAN CITY* MOSUNNY   72  52  49 W10G20    29.99S
KNOX*          MOSUNNY   73  43  33 W18G24    29.98S
SOUTH BEND     PTSUNNY   70  54  56 NW18G25   29.98S
6HR MIN TEMP:  64; 6HR MAX TEMP:  72;

ELKHART*       MOSUNNY   70  54  56 NW10      29.98R
GOSHEN         PTSUNNY   73  53  49 W14G25    29.97R
6HR MIN TEMP:  63; 6HR MAX TEMP:  74;

MONTICELLO*    MOSUNNY   73  55  54 W13G18    30.00S
6HR MIN TEMP:  62; 6HR MAX TEMP:  73;

FORT WAYNE     PTSUNNY   75  57  53 W16       29.97R
6HR MIN TEMP:  65; 6HR MAX TEMP:  75;

PERU/GRISSOM   MOSUNNY   73  57  56 W17       29.98S
6HR MIN TEMP:  63; 6HR MAX TEMP:  74;


$$
INZ028>050-241900-
CENTRAL INDIANA

CITY           SKY/WX    TMP DP  RH WIND       PRES   REMARKS
LAFAYETTE      MOSUNNY   71  57  61 W17       30.01S
6HR MIN TEMP:  62; 6HR MAX TEMP:  72;

KOKOMO*        PTSUNNY   72  58  61 W18       30.01S
6HR MIN TEMP:  63; 6HR MAX TEMP:  73;

MUNCIE*        MOSUNNY   75  57  53 W15G23    29.99F
6HR MIN TEMP:  65; 6HR MAX TEMP:  77;

INDIANAPOLIS   MOSUNNY   75  56  51 W12       30.02R
6HR MIN TEMP:  64; 6HR MAX TEMP:  75;


$$
MIZ043>046-050>051-056>058-064>065-071>073-077>080-241900-
SOUTHWEST LOWER MICHIGAN

CITY           SKY/WX    TMP DP  RH WIND       PRES   REMARKS
BATTLE CREEK   MOSUNNY   73  54  51 W16G24    29.95R
6HR MIN TEMP:  63; 6HR MAX TEMP:  75;

BENTON HARBOR  MOSUNNY   69  55  60 NW10      29.98S
6HR MIN TEMP:  65; 6HR MAX TEMP:  71;

COLDWATER*     PTSUNNY   72  53  50 W16G24    29.95R
6HR MIN TEMP:  63; 6HR MAX TEMP:  74;

HILLSDALE*     MOSUNNY   72  54  53 W12       29.93S
HOLLAND        PTSUNNY   68  55  63 W12G24    29.97R
6HR MIN TEMP:  64; 6HR MAX TEMP:  68;

GRAND RAPIDS   PTSUNNY   71  58  63 W22G30    29.92R
6HR MIN TEMP:  64; 6HR MAX TEMP:  71;

KALAMAZOO      PTSUNNY   71  52  50 W16G25    29.97R
6HR MIN TEMP:  64; 6HR MAX TEMP:  73;

STURGIS*       PTSUNNY   72  56  56 W13G18    29.96R
6HR MIN TEMP:  63; 6HR MAX TEMP:  72;

THREE RIVERS*  FAIR      73  53  50 W13G21    29.97R
6HR MIN TEMP:  64; 6HR MAX TEMP:  73;


$$
OHZ001>008-015>018-024>025-241900-
NORTHWEST OHIO

CITY           SKY/WX    TMP DP  RH WIND       PRES   REMARKS
DEFIANCE       MOSUNNY   75  55  49 W8G17     29.94R
6HR MIN TEMP:  64; 6HR MAX TEMP:  75;

FINDLAY        SUNNY     77  54  44 W15       29.94R
6HR MIN TEMP:  64; 6HR MAX TEMP:  78;

TOLEDO EXPRESS MOSUNNY   76  54  46 W17       29.91S
6HR MIN TEMP:  64; 6HR MAX TEMP:  77;

TOLEDO METCALF SUNNY     77  55  46 W13       29.92R
6HR MIN TEMP:  66; 6HR MAX TEMP:  78;

LIMA           MOSUNNY   75  56  51 W18G24    29.96S
6HR MIN TEMP:  64; 6HR MAX TEMP:  75;


$$
AND FOR LAKE MICHIGAN COASTAL AND OPEN LAKE BUOY OBSERVATIONS

STATION/POSITION TEMP    WIND        PRES    VSBY  WAVE
                 AIR SEA DIR/SP/G                  HT/PER
                 (F)     (DEG/KT/KT) (MB)    (MI)  (FT/S)
CALUMET HARBOR    73     250/  6/ 12 1015.0R
MICHIGAN CITY     67     260/ 11/ 12   N/A
BURNS HARBOR      69     280/ 11/ 13 1015.6S
SOUTH LAKE BUOY   62 62  280/  6/  8 1014.4          2/ 4
4 MI NW BRIDGMAN  65 68  300/  8/ 10 1015.4S         3/ 5
MICHIGAN CITY     67 68  280/  8/ 10   N/A           2/ 4

$$
&&



USA.gov is the U.S. government's official web portal to all federal, state and local government web resources and services.